Regional Weather Roundup
Issued by NWS Sioux Falls, SD

Home | Current Version | Previous Version | Graphics & Text | Print | Product List | Glossary On
Versions: 1 2 3 4 5 6 7 8 9 10 11 12 13 14 15 16 17 18 19 20 21 22 23 24 25 26 27 28 29 30 31 32 33 34 35 36 37 38 39 40 41 42 43 44 45 46 47 48 49 50
000
ASUS43 KFSD 260010
RWRFSD

WEATHER ROUNDUP FOR SE SOUTH DAKOTA/SW MINNESOTA/NW IOWA
NATIONAL WEATHER SERVICE SIOUX FALLS SD
700 PM CDT TUE APR 25 2017

NOTE: "FAIR" INDICATES FEW OR NO CLOUDS BELOW 12,000 FEET WITH NO
SIGNIFICANT WEATHER AND OR OBSTRUCTIONS TO VISIBILITY.


SDZ038>040-050-052>070-260100-
SOUTHEAST SOUTH DAKOTA

CITY           SKY/WX    TMP DP  RH WIND       PRES   REMARKS
BROOKINGS      CLOUDY    36  33  89 N18       29.66R
CHAMBERLAIN    CLOUDY    38  33  81 NW18G25   29.76R
6HR MIN TEMP:  38; 6HR MAX TEMP:  40;

HURON          CLOUDY    35  32  88 N20G25    29.75R WCI  24
6HR MIN TEMP:  35; 6HR MAX TEMP:  38;

MADISON        CLOUDY    36  36 100 N18G25    29.66R
MITCHELL       LGT RAIN  36  34  92 N22       29.73R
6HR MIN TEMP:  36; 6HR MAX TEMP:  42; 6HR PCP: TRACE;

SIOUX FALLS    LGT RAIN  39  39 100 N13       29.66R FOG
6HR MIN TEMP:  39; 6HR MAX TEMP:  42; 6HR PCP:  0.19;

WINNER         FLURRIES  37  31  78 N21G26    29.77R
YANKTON        CLOUDY    37  34  87 NW18G24   29.68R
$$

MNZ071-072-080-081-089-090-097-098-260100-
SOUTHWEST MINNESOTA

CITY           SKY/WX    TMP DP  RH WIND       PRES   REMARKS
FAIRMONT       CLOUDY    44  43  96 N13       29.56R
JACKSON        DRIZZLE   41  41 100 NW13      29.58R
LUVERNE        RAIN      37  36  93 N10       29.63R
MARSHALL       LGT RAIN  40  38  93 N21       29.62R
6HR MIN TEMP:  39; 6HR MAX TEMP:  40; 6HR PCP:  0.17;

MONTEVIDEO     LGT RAIN  43  39  87 N15       29.61R
PIPESTONE      LGT RAIN  37  34  87 N12G18    29.62R
REDWOOD FALLS  LGT RAIN  46  43  89 NW8       29.57S
TRACY          RAIN      40  40  97 NW18      29.61R
WINDOM         LGT RAIN  43  41  93 NW16      29.57S
WORTHINGTON    LGT RAIN  39  38  96 N16       29.60R FOG
$$

IAZ001>003-012>014-020>022-031-032-NEZ013-014-SDZ071-260100-
NORTHWEST IOWA

CITY           SKY/WX    TMP DP  RH WIND       PRES   REMARKS
CHEROKEE       DRIZZLE   42  42 100 N13       29.57S
DENISON        CLOUDY    46  43  87 N17       29.55R
ESTHERVILLE    RAIN      42  42 100 N17       29.55R FOG
LE MARS        CLOUDY    43  41  93 N15       29.61S FOG
ORANGE CITY    DRIZZLE   39  39 100 N13G18    29.60R
SHELDON        MIX PCPN  41  39  93 NW17      29.58S
SIOUX CITY     LGT RAIN  42  41  96 N18G25    29.59S
6HR MIN TEMP:  42; 6HR MAX TEMP:  45; 6HR PCP:  0.05;

SPENCER        LGT RAIN  43  41  93 N14       29.57R FOG
6HR MIN TEMP:  43; 6HR MAX TEMP:  44; 6HR PCP:  0.01;

STORM LAKE     MIX PCPN  43  41  93 N15G24    29.54S
$$

ABBREVIATIONS USED IN REMARKS
   TC - TEMPERATURE IN CELSIUS
  WCI - WIND CHILL INDEX
   HX - HEAT INDEX
  VSB - VISIBILITY





USA.gov is the U.S. government's official web portal to all federal, state and local government web resources and services.